Location: Boulin
(43.2500°N, 0.1333°E)
Time: 22:13:31
(UTC+00:00)

Okean 1 - Visible Passes

Search period start: 12 March 2026 00:00
Search period end: 22 March 2026 00:00
Orbit: 462 x 480 km, 82.5° (Epoch: 12 March)

Date Brightness Start Highest point End Pass type
(mag) Time Alt. Az. Time Alt. Az. Time Alt. Az.
13 Mar 6.4 05:25:31 10° SE 05:28:03 18° E 05:30:34 10° NE visible
14 Mar 7.1 04:58:49 10° E 04:59:09 10° E 04:59:30 10° E visible
16 Mar 4.4 05:31:48 10° SSE 05:35:13 43° E 05:38:39 10° NNE visible
17 Mar 5.7 05:03:16 10° SE 05:06:11 24° E 05:09:06 10° NE visible
18 Mar 6.4 04:35:23 10° ESE 04:37:11 13° E 04:38:58 10° ENE visible
20 Mar 3.6 05:09:38 10° S 05:13:09 60° E 05:16:41 10° NNE visible
21 Mar 5.0 04:40:50 10° SSE 04:44:00 31° E 04:47:11 10° NNE visible
